Location: New Town
(33.2710°N, 90.7534°W)
Time: 00:12:25
(UTC+00:00)

ISS - Visible Passes

Search period start: 20 April 2021 00:00
Search period end: 30 April 2021 00:00
Orbit: 418 x 421 km, 51.6° (Epoch: 19 April)

Date Brightness Start Highest point End Pass type
(mag) Time Alt. Az. Time Alt. Az. Time Alt. Az.
21 Apr -1.2 10:40:18 10° S 10:42:40 18° SE 10:45:01 10° E visible
23 Apr -3.5 10:41:11 10° SW 10:44:31 68° SE 10:47:52 10° NE visible
24 Apr -2.5 09:55:56 24° S 09:57:13 34° SE 10:00:18 10° ENE visible
25 Apr -1.3 09:10:40 17° ESE 09:10:40 17° ESE 09:12:22 10° E visible
25 Apr -2.7 10:43:39 11° WSW 10:46:35 32° NW 10:49:40 10° NNE visible
26 Apr -3.6 09:58:18 42° W 09:59:09 59° NW 10:02:30 10° NE visible
27 Apr -2.4 09:12:51 39° ENE 09:12:51 39° ENE 09:15:09 10° NE visible
27 Apr -1.3 10:47:11 10° WNW 10:48:55 13° NNW 10:50:40 10° N visible
28 Apr -0.4 08:27:20 11° ENE 08:27:20 11° ENE 08:27:34 10° ENE visible
28 Apr -1.9 10:00:18 17° WNW 10:01:20 20° NW 10:03:55 10° NNE visible
29 Apr -2.0 09:14:43 27° N 09:14:43 27° N 09:16:54 10° NNE visible
